TimeCST,TemperatureF,Dew PointF,Humidity,Sea Level PressureIn,VisibilityMPH,Wind Direction,Wind SpeedMPH,Gust SpeedMPH,PrecipitationIn,Events,Conditions,WindDirDegrees,DateUTC
12:52 AM,28.0,19.9,72,29.97,10.0,NNW,9.2,-,N/A,,Clear,340,2012-12-23 06:52:00
1:52 AM,26.1,19.9,78,29.95,10.0,North,10.4,-,N/A,,Clear,350,2012-12-23 07:52:00
2:52 AM,23.0,19.0,85,29.96,10.0,North,10.4,-,N/A,,Clear,360,2012-12-23 08:52:00
3:52 AM,19.9,17.1,89,29.96,10.0,North,10.4,-,N/A,,Clear,360,2012-12-23 09:52:00
4:52 AM,18.0,15.1,88,29.96,10.0,North,9.2,-,N/A,,Clear,360,2012-12-23 10:52:00
5:52 AM,18.0,15.1,88,29.98,9.0,North,11.5,-,N/A,,Clear,360,2012-12-23 11:52:00
6:52 AM,18.0,15.1,88,29.99,8.0,North,10.4,-,N/A,,Clear,360,2012-12-23 12:52:00
7:52 AM,15.1,12.9,91,30.01,7.0,NNW,4.6,-,N/A,,Clear,340,2012-12-23 13:52:00
8:52 AM,19.9,17.1,89,30.00,6.0,North,4.6,-,N/A,,Clear,360,2012-12-23 14:52:00
9:35 AM,21.2,19.4,93,29.94,5.0,North,5.8,-,N/A,,Scattered Clouds,10,2012-12-23 15:35:00
9:52 AM,24.1,19.9,84,30.01,6.0,Calm,Calm,-,N/A,,Partly Cloudy,0,2012-12-23 15:52:00
10:52 AM,27.0,21.9,81,30.02,7.0,NW,4.6,-,N/A,,Clear,310,2012-12-23 16:52:00
11:52 AM,30.0,21.9,72,29.98,9.0,North,6.9,-,N/A,,Clear,360,2012-12-23 17:52:00
12:52 PM,32.0,21.9,66,29.95,10.0,North,9.2,-,N/A,,Clear,350,2012-12-23 18:52:00
1:52 PM,34.0,23.0,64,29.94,10.0,NNW,6.9,-,N/A,,Clear,330,2012-12-23 19:52:00
2:52 PM,36.0,23.0,59,29.94,10.0,North,10.4,-,N/A,,Clear,350,2012-12-23 20:52:00
3:52 PM,34.0,23.0,64,29.96,10.0,NNW,9.2,-,N/A,,Clear,340,2012-12-23 21:52:00
4:52 PM,33.1,23.0,66,29.98,10.0,NNW,6.9,-,N/A,,Clear,340,2012-12-23 22:52:00
5:52 PM,30.9,23.0,72,30.00,10.0,Calm,Calm,-,N/A,,Clear,0,2012-12-23 23:52:00
6:52 PM,28.0,21.9,78,30.02,10.0,NW,4.6,-,N/A,,Clear,310,2012-12-24 00:52:00
7:52 PM,27.0,21.9,81,30.01,10.0,Calm,Calm,-,N/A,,Clear,0,2012-12-24 01:52:00
8:52 PM,27.0,21.0,78,30.02,10.0,WNW,9.2,-,N/A,,Clear,290,2012-12-24 02:52:00
9:52 PM,28.9,19.9,69,30.02,10.0,WNW,10.4,-,N/A,,Clear,300,2012-12-24 03:52:00
10:52 PM,26.1,19.0,75,30.04,10.0,NW,9.2,-,N/A,,Clear,320,2012-12-24 04:52:00
11:52 PM,26.1,18.0,71,30.03,10.0,North,9.2,-,N/A,,Clear,350,2012-12-24 05:52:00